Visalia, CA

4:58 AM PDT on October 15, 2019 (GMT -0700)
Visalia Municipal

Weather History for KVIS - August, 2019

Change the Weather History Date:

Thursday, August 8, 2019

  Actual Average Record
Temperature  
Mean Temperature 78 °F -  
Max Temperature 93 °F 96 °F 107 °F (1936)
Min Temperature 64 °F 66 °F 55 °F (1944)
Cooling Degree Days 12    
Growing Degree Days 28 (Base 50)    
Moisture  
Dew Point 53 °F    
Average Humidity 44    
Maximum Humidity 78    
Minimum Humidity 23    
Precipitation  
Precipitation 0.00 in - - ()
Sea Level Pressure  
Sea Level Pressure 29.90 in    
Wind  
Wind Speed 7 mph (West)    
Max Wind Speed 13 mph    
Max Gust Speed -    
Visibility 10 miles    
Events      
Averages and records for this station are not official NWS values.
T = Trace of Precipitation, MM = Missing Value Source: NWS Daily Summary

Daily Weather History Graph

Daily Weather History Graph

Search for Another Location

Airport or City:

Astronomy

Aug. 08, 2019 Rise Set
Actual Time 6:09 AM PDT 7:56 PM PDT
Civil Twilight 5:41 AM PDT 8:23 PM PDT
Nautical Twilight 5:08 AM PDT 8:57 PM PDT
Astronomical Twilight 4:32 AM PDT 9:33 PM PDT
Moon 2:37 PM PDT (8/8) 12:33 AM PDT (8/8)
Length of Visible Light 14h 42m
Length of Day
13h 46m
First Quarter, 61% of the Moon is Illuminated
Aug 8
First Quarter
Aug 15
Full
Aug 23
Last Quarter
Aug 30
New
Sep 5
First Quarter

Hourly Weather History & Observations

Time (PDT) Temp. Heat Index Dew Point Humidity Pressure Visibility Wind Dir Wind Speed Gust Speed Precip Events Conditions
12:56 AM 73.9 °F - 52.0 °F 46% 29.87 in 10.0 mi NW 11.5 mph - N/A   Clear
1:56 AM 71.1 °F - 52.0 °F 51% 29.88 in 10.0 mi West 5.8 mph - N/A   Clear
2:56 AM 68.0 °F - 54.0 °F 61% 29.88 in 10.0 mi West 4.6 mph - N/A   Clear
3:56 AM 64.0 °F - 57.0 °F 78% 29.90 in 10.0 mi SSE 3.5 mph - N/A   Clear
4:56 AM 64.0 °F - 55.0 °F 73% 29.91 in 10.0 mi SSW 4.6 mph - N/A   Clear
5:56 AM 64.0 °F - 54.0 °F 70% 29.92 in 10.0 mi Calm Calm - N/A   Clear
6:56 AM 66.9 °F - 52.0 °F 59% 29.94 in 10.0 mi Calm Calm - N/A   Clear
7:56 AM 70.0 °F - 52.0 °F 53% 29.95 in 10.0 mi West 3.5 mph - N/A   Clear
8:56 AM 73.0 °F - 52.0 °F 48% 29.96 in 10.0 mi WSW 3.5 mph - N/A   Clear
9:56 AM 79.0 °F - 51.1 °F 38% 29.95 in 10.0 mi WNW 5.8 mph - N/A   Clear
10:56 AM 81.0 °F 80.4 °F 53.1 °F 38% 29.95 in 10.0 mi WNW 5.8 mph - N/A   Clear
11:56 AM 84.0 °F - 50.0 °F 31% 29.94 in 10.0 mi Variable 5.8 mph - N/A   Clear
12:56 PM 87.1 °F - 48.9 °F 27% 29.93 in 10.0 mi WNW 8.1 mph - N/A   Clear
1:56 PM 89.1 °F - 52.0 °F 28% 29.91 in 10.0 mi West 8.1 mph - N/A   Clear
2:56 PM 91.0 °F - 51.1 °F 25% 29.89 in 10.0 mi West 8.1 mph - N/A   Clear
3:56 PM 91.9 °F - 52.0 °F 26% 29.86 in 10.0 mi West 8.1 mph - N/A   Clear
4:56 PM 91.9 °F - 48.9 °F 23% 29.85 in 10.0 mi WNW 11.5 mph - N/A   Clear
5:56 PM 91.0 °F - 52.0 °F 26% 29.85 in 10.0 mi West 8.1 mph - N/A   Clear
6:56 PM 88.0 °F 86.1 °F 55.0 °F 32% 29.84 in 10.0 mi WNW 8.1 mph - N/A   Clear
7:56 PM 82.9 °F 82.1 °F 55.9 °F 39% 29.85 in 10.0 mi West 6.9 mph - N/A   Clear
8:56 PM 79.0 °F - 55.0 °F 44% 29.87 in 10.0 mi WNW 9.2 mph - N/A   Clear
9:56 PM 77.0 °F - 57.0 °F 50% 29.88 in 10.0 mi NW 12.7 mph - N/A   Clear
10:56 PM 73.9 °F - 55.9 °F 53% 29.88 in 10.0 mi NW 11.5 mph - N/A   Clear
11:56 PM 72.0 °F - 52.0 °F 49% 29.88 in 10.0 mi NW 12.7 mph - N/A   Clear